Regional Weather Roundup
Issued by NWS

Home | Current Version | Previous Version | Graphics & Text | Print | Product List | Glossary On
Versions: 1 2 3 4 5 6 7 8 9 10 11 12 13 14 15 16 17 18 19 20 21 22 23 24 25 26 27
000
ASUS45 KCYS 171810
RWRWY

WYOMING REGIONAL WEATHER ROUNDUP
NATIONAL WEATHER SERVICE CHEYENNE WY
1200 PM MDT THU AUG 17 2017

NOTE:  "FAIR" INDICATES FEW OR NO CLOUDS BELOW 12,000 FEET
WITH NO SIGNIFICANT WEATHER AND/OR OBSTRUCTIONS TO VISIBILITY.

WYZ001-171900-
YELLOWSTONE NATIONAL PARK

CITY           SKY/WX    TMP DP  RH WIND       PRES   REMARKS
LK YELLOWSTONE   N/A     63  37  38 VRB5      30.31S
6HR MIN TEMP:  41; 6HR MAX TEMP:  64;

W YELLOWSTONE  NOT AVBL

$$
WYZ002>013-054>058-071-098>099-171900-
NORTHERN WYOMING

CITY           SKY/WX    TMP DP  RH WIND       PRES   REMARKS
JACKSON        SUNNY     68  34  28 S7        30.24S
CODY           FAIR      73  40  30 VRB6      30.12S
GREYBULL       FAIR      75  42  30 CALM      30.03F
6HR MIN TEMP:  55; 6HR MAX TEMP:  75; 6HR PCP: TRACE;

WORLAND        FAIR      77  41  27 VRB5      30.03F
6HR MIN TEMP:  50; 6HR MAX TEMP:  78;

SHERIDAN       FAIR      74  41  30 NW12      30.05R
6HR MIN TEMP:  56; 6HR MAX TEMP:  79;

BUFFALO        PTSUNNY   77  38  24 N14       30.09R
GILLETTE       NOT AVBL
HULETT         FAIR      79  45  29 W5        30.02S
NEWCASTLE      FAIR      77  37  24 S3        30.02F

$$
WYZ014>020-022>026-101>103-171900-
CENTRAL WYOMING

CITY           SKY/WX    TMP DP  RH WIND       PRES   REMARKS
BIG PINEY      FAIR      69  39  33 W3        30.28F
6HR MIN TEMP:  37; 6HR MAX TEMP:  70;

PINEDALE       FAIR      68  32  26 SW3       30.29F
DUBOIS         FAIR      70  28  21 W20G28    30.23F
LANDER           N/A    N/A N/A N/A MISG      30.10F
RIVERTON       FAIR      77  33  20 CALM      30.12F
6HR MIN TEMP:  55; 6HR MAX TEMP:  78;

CASPER         FAIR      82  32  16 W14G25    30.09F
6HR MIN TEMP:  58; 6HR MAX TEMP:  83;

DOUGLAS        FAIR      82  38  20 W14G23    30.07F
6HR MIN TEMP:  53; 6HR MAX TEMP:  82;


$$
WYZ021-027>030-104>119-171900-
SOUTHERN WYOMING

CITY           SKY/WX    TMP DP  RH WIND       PRES   REMARKS
EVANSTON       FAIR      75  36  24 SW20G25   30.31S
6HR MIN TEMP:  51; 6HR MAX TEMP:  76;

KEMMERER         N/A     72  32  23 W17G24    30.31F
FORT BRIDGER   FAIR      78  32  19 W14G24    30.32S
ROCK SPRINGS   FAIR      75  33  21 W15       30.27F
6HR MIN TEMP:  54; 6HR MAX TEMP:  75;

RAWLINS        FAIR      75  36  24 W16G24    30.25F
6HR MIN TEMP:  48; 6HR MAX TEMP:  75;

SARATOGA       FAIR      70  37  30 W9G22     30.28S
LARAMIE        FAIR      75  33  21 NW14G21   30.25F
6HR MIN TEMP:  44; 6HR MAX TEMP:  76;

CHEYENNE       FAIR      76  34  21 NW12G18   30.18S
6HR MIN TEMP:  52; 6HR MAX TEMP:  80;

TORRINGTON     FAIR      81  45  28 CALM      30.03F
6HR MIN TEMP:  50; 6HR MAX TEMP:  81;

PINE BLUFFS    MOCLDY    77  45  31 S8        30.12F

$$




USA.gov is the U.S. government's official web portal to all federal, state and local government web resources and services.